Home   Weather   Bottrop   Past weeks

Flag for Germany Past Weather in Bottrop, North Rhine-Westphalia, Germany — Yesterday and Last 2 Weeks

Now
21 °F

Clear.


Feels Like: 21 °F
Forecast: 24 / 36 °F
Wind: 2 mph from Northeast

Location: Duesseldorf

Current Time: Jan 19, 2017 at 1:42:31 am

Latest Report: Jan 19, 2017 at 12:50 am


Visibility: 10 mi

Pressure: 30.66 "Hg

Humidity: 93%

Dew Point: 19 °F

Location of BottropLocation

Past Weather in Bottrop — Graph

°F

Bottrop Temperature Yesterday

Maximum temperature yesterday: 34 °F (at 3:50 pm)
Minimum temperature yesterday: 19 °F (at 7:20 am)
Average temperature yesterday: 26 °F

High & Low Weather Summary for the Past Weeks

 TemperatureHumidityPressure
High46 °F (Jan 11, 2:20 pm)100% (Jan 4, 12:20 am)30.74 "Hg (Jan 4, 12:20 am)
Low16 °F (Jan 6, 4:50 am)56% (Jan 5, 1:20 pm)28.94 "Hg (Jan 13, 1:20 am)
Average34 °F85%30.17 "Hg
* Reported Jan 4 12:20 am — Jan 19 12:50 am, Bottrop, Weather by CustomWeather, © 2017

Note: Actual official high and low records may vary slightly from our data, if they occured in-between our weather recording intervals... More about our weather records

Advertising

Bottrop Weather History for the Previous 24 Hours

Scroll right to see more
 ConditionsComfort  
Time TempWeatherWind HumidityBarometerVisibility
12:50 am
Thu, Jan 19
21 °FClear.2 mph93%30.66 "Hg10 mi
12:20 am21 °FClear.2 mph93%30.66 "Hg10 mi
11:50 pm
Wed, Jan 18
25 °FClear.2 mph86%30.66 "Hg10 mi
11:20 pm25 °FClear.1 mph86%30.66 "Hg10 mi
10:50 pm25 °FClear.2 mph86%30.66 "Hg10 mi
10:20 pm27 °FClear.3 mph80%30.66 "Hg10 mi
9:50 pm27 °FClear.2 mph80%30.66 "Hg10 mi
9:20 pm27 °FClear.5 mph80%30.66 "Hg10 mi
8:50 pm28 °FClear.3 mph74%30.66 "Hg10 mi
8:20 pm28 °FClear.3 mph74%30.66 "Hg10 mi
7:50 pm30 °FClear.6 mph69%30.66 "Hg10 mi
7:20 pm30 °FClear.6 mph69%30.66 "Hg10 mi
6:50 pm30 °FClear.6 mph69%30.66 "Hg10 mi
6:20 pm30 °FClear.6 mph75%30.66 "Hg10 mi
5:50 pm30 °FClear.3 mph75%30.66 "Hg10 mi
5:20 pm32 °FClear.5 mph69%30.66 "Hg10 mi
4:50 pm32 °FSunny.7 mph69%30.69 "Hg10 mi
4:20 pm34 °FSunny.6 mph65%30.66 "Hg10 mi
3:50 pm34 °FPassing clouds.6 mph60%30.69 "HgN/A
3:20 pm32 °FSunny.7 mph69%30.66 "Hg10 mi
2:50 pm32 °FSunny.7 mph69%30.69 "Hg10 mi
2:20 pm32 °FSunny.6 mph69%30.69 "Hg10 mi
1:50 pm32 °FSunny.2 mph69%30.69 "Hg10 mi
1:20 pm32 °FSunny.1 mph69%30.69 "Hg10 mi
12:50 pm32 °FClear.2 mph75%30.69 "Hg6 mi
12:20 pm30 °FClear.2 mph75%30.69 "Hg6 mi
11:50 am28 °FClear.3 mph80%30.72 "Hg6 mi
11:20 am28 °FClear.5 mph80%30.72 "Hg5 mi
10:50 am27 °FClear.3 mph80%30.72 "Hg5 mi
10:20 am25 °FClear.3 mph86%30.72 "Hg4 mi
9:50 am25 °FClear.2 mph86%30.72 "Hg4 mi
9:20 am21 °FClear.3 mph93%30.72 "Hg4 mi
8:50 am19 °FClear.2 mph86%30.69 "Hg4 mi
8:20 am19 °FClear.1 mph93%30.69 "Hg4 mi
7:50 am21 °FClear.2 mph93%30.69 "Hg4 mi
7:20 am19 °FClear.3 mph93%30.69 "Hg4 mi
6:50 am21 °FClear.1 mph93%30.69 "Hg4 mi
6:20 am21 °FClear.2 mph93%30.69 "Hg4 mi
5:50 am23 °FClear.5 mph86%30.69 "Hg10 mi
5:20 am23 °FClear.2 mph86%30.69 "Hg6 mi
4:50 am23 °FClear.2 mph86%30.69 "Hg10 mi
4:20 am21 °FClear.5 mph93%30.69 "Hg10 mi
3:50 am23 °FClear.3 mph86%30.69 "Hg10 mi
3:20 am23 °FClear.3 mph93%30.69 "Hg10 mi
2:50 am23 °FClear.3 mph93%30.69 "Hg10 mi
2:20 am25 °FPassing clouds.6 mph86%30.69 "HgN/A
1:50 am23 °FPassing clouds.8 mph93%30.69 "HgN/A
1:20 am23 °FPassing clouds.6 mph93%30.69 "Hg5 mi
Weather by CustomWeather, © 2017

See weather overviewHow to use our weather pages